This demonstration page uses our WeatherBlox Daily Observations layout. Learn more.

Left ArrowRight Arrow

Hourly Observations for April 21, 2020

Temp ( °F °C ) Dew Point ( °F °C ) Humidity (%) Winds ( mph kmh ) Pressure ( in mb ) Visibility ( mi km ) Precip ( " mm )
12:51 am 00:51 Clear 66 18.9 26 -3.3 22 22 NW 14 22 29.84 1010 10 16.0934 0 0
1:51 am 01:51 Clear 64 17.8 27 -2.8 25 25 WNW 14 22 29.83 1010 10 16.0934 0 0
2:51 am 02:51 Clear 60 15.6 26 -3.3 27 27 NW 7 11 29.84 1011 10 16.0934 0 0
3:51 am 03:51 Clear 60 15.6 28 -2.2 30 30 NW 5 7 29.85 1011 10 16.0934 0 0
4:51 am 04:51 Clear 52 11.1 27 -2.8 38 38 Calm 29.88 1012 10 16.0934 0 0
5:51 am 05:51 Sunny 49 9.4 26 -3.3 41 41 ESE 6 9 29.9 1013 10 16.0934 0 0
6:51 am 06:51 Sunny 57 13.9 28 -2.2 33 33 Calm 29.91 1013 10 16.0934 0 0
7:51 am 07:51 Sunny 62 16.7 29 -1.7 29 29 VRB 5 7 29.92 1013 10 16.0934 0 0
8:51 am 08:51 Sunny 67 19.4 30 -1.1 25 25 VRB 3 6 29.91 1013 10 16.0934 0 0
9:51 am 09:51 Sunny 72 22.2 31 -0.6 22 22 WNW 7 11 29.9 1012 10 16.0934 0 0
10:51 am 10:51 Sunny 75 23.9 30 -1.1 19 19 VRB 3 6 29.88 1012 10 16.0934 0 0
11:51 am 11:51 Sunny 77 25 29 -1.7 17 17 Calm 29.84 1011 10 16.0934 0 0
12:51 pm 12:51 Sunny 80 26.7 29 -1.7 15 15 NNW 10 17 29.8 1009 10 16.0934 0 0
1:51 pm 13:51 Sunny 81 27.2 27 -2.8 14 14 undefined N/A 29.76 1008 10 16.0934 0 0
2:51 pm 14:51 Sunny 83 28.3 26 -3.3 12 12 WNW 10 17 29.74 1007 10 16.0934 0 0
3:51 pm 15:51 Sunny 84 28.9 21 -6.1 10 10 WNW 22 35 29.72 1006 10 16.0934 0 0
4:51 pm 16:51 Sunny 81 27.2 18 -7.8 9 9 WNW 33 54 29.73 1007 10 16.0934 0 0
5:51 pm 17:51 Sunny 78 25.6 21 -6.1 12 12 NW 24 39 29.76 1008 10 16.0934 0 0
6:51 pm 18:51 Sunny 73 22.8 27 -2.8 18 18 WNW 17 28 29.79 1009 10 16.0934 0 0
7:51 pm 19:51 Clear 69 20.6 29 -1.7 22 22 WNW 17 28 29.83 1010 10 16.0934 0 0
8:51 pm 20:51 Clear 66 18.9 30 -1.1 26 26 WNW 12 19 29.87 1011 10 16.0934 0 0
9:51 pm 21:51 Clear 64 17.8 31 -0.6 29 29 W 8 13 29.89 1012 10 16.0934 0 0
10:51 pm 22:51 Clear 62 16.7 31 -0.6 31 31 NW 10 17 29.89 1012 10 16.0934 0 0
11:51 pm 23:51 undefined 57 13.9 31 -0.6 37 37 NNW 7 11 29.91 1013 N/A 0 0

Powered by AerisWeather